Regional Weather Roundup
Issued by NWS

Home | Current Version | Previous Version | Graphics & Text | Print | Product List | Glossary On
Versions: 1 2 3 4 5 6 7 8 9 10 11 12 13 14 15 16 17 18 19 20 21 22 23 24 25 26 27 28 29 30 31 32 33 34 35 36 37 38 39 40 41 42 43 44 45 46 47 48 49 50
000
ASUS45 KABQ 161410
RWRNM
WEATHER ROUNDUP FOR NEW MEXICO
NATIONAL WEATHER SERVICE ALBUQUERQUE NM
800 AM MDT TUE SEP 16 2014

NOTE: "FAIR" MEANS FEW OR NO CLOUDS BELOW 12,000 FEET AGL WITH NO
       SIGNIFICANT WEATHER OR OBSTRUCTIONS TO VISION.

      THIS PRODUCT IS RELEASED AS TWO VERSIONS.  ONE VERSION NEAR
      THE TOP OF THE HOUR CONTAINING PRELIMINARY DATA FROM ALBUQUERQUE
      AND OTHER STATIONS.  A FINAL VERSION WITH ADDITIONAL DATA IS
      ISSUED ABOUT 10 MINUTES AFTER THE HOUR.

NMZ501-503-504-510>518-161500-
NORTHWEST PLATEAU/NORTHCENTRAL MOUNTAINS

CITY           SKY/WX    TMP DP  RH WIND       PRES   REMARKS
FARMINGTON     SUNNY     61  46  57 E7        30.29R
LOS ALAMOS     PTSUNNY   56  53  88 S3        30.42S
SANTA FE       CLOUDY    59  52  77 NE3       30.37R
ANGEL FIRE     FOG       41  39  93 CALM      30.50S VSB<1/4

$$
NMZ402-403-502-505>509-161500-
WESTCENTRAL MOUNTAINS/SOUTHWEST MOUNTAINS

CITY           SKY/WX    TMP DP  RH WIND       PRES   REMARKS
GALLUP         MOSUNNY   57  50  77 CALM      30.34R
GRANTS         CLOUDY    57  55  94 S7        30.37S
SILVER CITY    CLOUDY    63  61  94 E3        30.29R

$$
NMZ407-409-411-412-161500-
SOUTHERN DESERTS

CITY           SKY/WX    TMP DP  RH WIND       PRES   REMARKS
LORDSBURG      DRIZZLE   64  63  94 S6        30.20R
DEMING         CLOUDY    65  65 100 E10       30.21S
LAS CRUCES     CLOUDY    64  63  97 NE3       30.25R
HOLLOMAN AFB   LGT RAIN  66  66 100 CALM      30.23R
ALAMOGORDO     CLOUDY    64  64 100 W3        30.25R FOG
T OR C         LGT RAIN  63  62  97 N5        30.27R

$$
NMZ519>523-161500-
CENTRAL VALLEYS/CENTRAL HIGHLANDS

CITY           SKY/WX    TMP DP  RH WIND       PRES   REMARKS
ALBUQUERQUE    CLOUDY    65  57  75 N6        30.31R
DOUBLE EAGLE   PTSUNNY   61  57  88 VRB5      30.34R
MORIARTY ARPT  CLOUDY    58  55  90 CALM      30.37S
CLINES CORNERS CLOUDY    57  54  89 S5        30.38F
BELEN          CLOUDY    65  59  80 SW3       30.30S
SOCORRO        RAIN      64  62  95 SW3       30.28S

$$
NMZ524>526-539-540-161500-
SOUTHCENTRAL MOUNTAINS

CITY           SKY/WX    TMP DP  RH WIND       PRES   REMARKS
RUIDOSO        LGT RAIN  57  57 100 SE6       30.41S

$$
NMZ527>531-161500-
NORTHEAST HIGHLANDS/NORTHEAST PLAINS

CITY           SKY/WX    TMP DP  RH WIND       PRES   REMARKS
LAS VEGAS      CLOUDY    54  53  97 SW7       30.38S
RATON          CLOUDY    55  52  89 CALM      30.34S
CLAYTON        SUNNY     59  54  83 SW13      30.26S

$$
NMZ532>537-161500-
EASTCENTRAL PLAINS

CITY           SKY/WX    TMP DP  RH WIND       PRES   REMARKS
TUCUMCARI      CLOUDY    63  56  78 SE5       30.27S
CANNON AFB     CLOUDY    53  62 100 E3        30.29S FOG
CLOVIS AIRPORT   N/A     61  57  88 NE3       30.31S

$$
NMZ028-029-538-161500-
SOUTHEAST PLAINS

CITY           SKY/WX    TMP DP  RH WIND       PRES   REMARKS
ROSWELL        CLOUDY    67  64  90 CALM      30.24R
CARLSBAD       LGT RAIN  69  32  25 N5        30.21R
HOBBS          MOSUNNY   66  66 100 N6        30.25S FOG


$$


USA.gov is the U.S. government's official web portal to all federal, state and local government web resources and services.